Radiation Dose at Monitoring Post of Fukushima Daini Nuclear Power Station
Date,Time,MP-1(microSv/h),MP-2(microSv/h),MP-3(microSv/h),MP-4(microSv/h),MP-5(microSv/h),MP-6(microSv/h),MP-7(microSv/h),Wind Direction,Wind Velocity(m/s),Rain
2019/10/05,00:00,0.191,0.167,0.287,0.273,0.265,0.147,0.090,west,4.0,No
2019/10/05,00:10,0.190,0.166,0.285,0.271,0.268,0.147,0.089,west,3.6,No
2019/10/05,00:20,0.192,0.166,0.288,0.270,0.265,0.146,0.090,west-southwest,3.0,No
2019/10/05,00:30,0.190,0.167,0.286,0.273,0.266,0.146,0.090,west,2.0,No
2019/10/05,00:40,0.193,0.167,0.287,0.268,0.269,0.146,0.090,west-southwest,2.3,No
2019/10/05,00:50,0.192,0.167,0.287,0.271,0.266,0.146,0.089,south-southwest,3.7,No
2019/10/05,01:00,0.190,0.168,0.284,0.272,0.266,0.147,0.090,south-southwest,5.1,No
2019/10/05,01:10,0.193,0.167,0.288,0.269,0.267,0.146,0.090,southwest,6.2,No
2019/10/05,01:20,0.191,0.167,0.287,0.272,0.264,0.147,0.089,southwest,4.7,No
2019/10/05,01:30,0.191,0.167,0.287,0.271,0.268,0.147,0.090,west,6.9,No
2019/10/05,01:40,0.193,0.167,0.288,0.271,0.266,0.146,0.090,west,5.0,No
2019/10/05,01:50,0.190,0.167,0.285,0.271,0.267,0.147,0.089,west-southwest,5.5,No
2019/10/05,02:00,0.193,0.167,0.286,0.270,0.267,0.146,0.090,west-northwest,5.2,No
2019/10/05,02:10,0.192,0.167,0.286,0.272,0.264,0.147,0.090,west,5.0,No
2019/10/05,02:20,0.191,0.167,0.288,0.270,0.267,0.147,0.090,southwest,4.3,No
2019/10/05,02:30,0.192,0.168,0.289,0.269,0.267,0.146,0.091,southwest,5.1,No
2019/10/05,02:40,0.191,0.166,0.286,0.271,0.265,0.147,0.089,west,5.8,No
2019/10/05,02:50,0.193,0.168,0.288,0.268,0.268,0.147,0.089,west-northwest,6.4,No
2019/10/05,03:00,0.192,0.166,0.287,0.272,0.266,0.146,0.090,west-northwest,4.3,No
2019/10/05,03:10,0.191,0.167,0.287,0.270,0.268,0.147,0.089,west,3.2,No
2019/10/05,03:20,0.193,0.167,0.287,0.269,0.266,0.146,0.089,northwest,1.5,No
2019/10/05,03:30,0.192,0.168,0.287,0.271,0.265,0.147,0.090,north-northwest,0.6,No
2019/10/05,03:40,0.192,0.168,0.288,0.270,0.268,0.146,0.090,northwest,2.6,No
2019/10/05,03:50,0.192,0.167,0.287,0.271,0.264,0.148,0.090,west-northwest,4.7,No
2019/10/05,04:00,0.191,0.168,0.288,0.271,0.268,0.147,0.090,west-northwest,6.7,No
2019/10/05,04:10,0.193,0.165,0.288,0.270,0.266,0.146,0.089,northwest,9.5,No
2019/10/05,04:20,0.192,0.167,0.287,0.272,0.266,0.147,0.090,west-northwest,10.4,No
2019/10/05,04:30,0.189,0.166,0.288,0.270,0.268,0.146,0.090,northwest,11.4,No
2019/10/05,04:40,0.193,0.168,0.287,0.273,0.265,0.148,0.089,west-northwest,13.7,No
2019/10/05,04:50,0.191,0.167,0.286,0.271,0.267,0.147,0.090,west,11.4,No
2019/10/05,05:00,0.191,0.166,0.287,0.271,0.266,0.147,0.089,west,10.4,No
2019/10/05,05:10,0.193,0.168,0.285,0.271,0.264,0.147,0.089,northwest,4.4,No
2019/10/05,05:20,0.191,0.167,0.290,0.269,0.268,0.146,0.090,west-northwest,3.8,No
2019/10/05,05:30,0.191,0.166,0.287,0.271,0.265,0.147,0.089,west-northwest,3.6,No
2019/10/05,05:40,0.193,0.166,0.286,0.270,0.266,0.146,0.090,northwest,5.4,No
2019/10/05,05:50,0.191,0.166,0.287,0.269,0.267,0.146,0.090,north-northwest,5.1,No
2019/10/05,06:00,0.192,0.168,0.286,0.272,0.264,0.148,0.090,northwest,4.3,No
2019/10/05,06:10,0.192,0.167,0.287,0.269,0.267,0.146,0.090,northwest,6.8,No
2019/10/05,06:20,0.190,0.167,0.288,0.271,0.266,0.146,0.089,northwest,6.8,No
2019/10/05,06:30,0.192,0.168,0.285,0.271,0.264,0.147,0.089,west-northwest,8.5,No
2019/10/05,06:40,0.192,0.167,0.289,0.269,0.268,0.146,0.090,northwest,6.8,No
2019/10/05,06:50,0.192,0.167,0.288,0.271,0.265,0.147,0.089,northwest,3.9,No
2019/10/05,07:00,0.193,0.167,0.286,0.271,0.266,0.146,0.088,northwest,7.0,No
2019/10/05,07:10,0.191,0.167,0.289,0.269,0.267,0.148,0.088,west-northwest,9.2,No
2019/10/05,07:20,0.192,0.168,0.286,0.271,0.265,0.147,0.089,west-northwest,9.6,No
2019/10/05,07:30,0.194,0.165,0.287,0.271,0.266,0.146,0.088,west-northwest,13.1,No
2019/10/05,07:40,0.192,0.167,0.289,0.268,0.268,0.147,0.090,west-northwest,9.6,No
2019/10/05,07:50,0.190,0.166,0.285,0.267,0.266,0.146,0.090,west-northwest,7.2,No
2019/10/05,08:00,0.193,0.166,0.289,0.270,0.268,0.147,0.090,west,4.0,No
2019/10/05,08:10,0.193,0.168,0.287,0.272,0.268,0.147,0.089,west-southwest,3.2,No
2019/10/05,08:20,0.191,0.167,0.286,0.270,0.265,0.146,0.089,west-southwest,1.6,No
2019/10/05,08:30,0.193,0.166,0.289,0.270,0.266,0.147,0.090,north,1.0,No
2019/10/05,08:40,0.192,0.166,0.287,0.268,0.266,0.147,0.090,northwest,1.7,No
2019/10/05,08:50,0.191,0.167,0.287,0.267,0.266,0.146,0.089,west-northwest,6.2,No
2019/10/05,09:00,0.191,0.167,0.289,0.268,0.265,0.146,0.090,west-northwest,3.4,No
2019/10/05,09:10,0.189,0.168,0.286,0.268,0.263,0.147,0.089,northwest,3.3,No
2019/10/05,09:20,0.189,0.167,0.286,0.269,0.264,0.147,0.089,northwest,6.4,No
2019/10/05,09:30,0.190,0.166,0.289,0.270,0.264,0.146,0.090,northwest,6.1,No
2019/10/05,09:40,0.191,0.166,0.288,0.269,0.266,0.147,0.090,west-northwest,4.8,No
2019/10/05,09:50,0.191,0.166,0.286,0.271,0.265,0.147,0.090,west-northwest,6.1,No
2019/10/05,10:00,0.190,0.165,0.290,0.270,0.265,0.146,0.089,west-northwest,4.5,No
2019/10/05,10:10,0.189,0.167,0.288,0.271,0.266,0.146,0.090,west,4.9,No
2019/10/05,10:20,0.192,0.167,0.286,0.269,0.266,0.147,0.090,west-northwest,6.6,No
2019/10/05,10:30,0.192,0.167,0.284,0.272,0.266,0.146,0.090,west-northwest,7.5,No
2019/10/05,10:40,0.192,0.166,0.289,0.272,0.266,0.147,0.089,west-northwest,7.5,No
2019/10/05,10:50,0.193,0.167,0.289,0.272,0.267,0.147,0.090,west-northwest,8.5,No
2019/10/05,11:00,0.192,0.167,0.287,0.272,0.267,0.147,0.091,west-northwest,7.8,No
2019/10/05,11:10,0.192,0.167,0.286,0.272,0.266,0.147,0.089,west-northwest,5.3,No
2019/10/05,11:20,0.192,0.167,0.285,0.271,0.266,0.147,0.090,west-northwest,5.4,No
2019/10/05,11:30,0.192,0.167,0.285,0.272,0.268,0.147,0.090,west-northwest,5.7,No
2019/10/05,11:40,0.192,0.168,0.285,0.272,0.267,0.147,0.090,northwest,3.8,No
2019/10/05,11:50,0.191,0.168,0.286,0.272,0.268,0.147,0.089,west-northwest,6.5,No
2019/10/05,12:00,0.193,0.167,0.285,0.273,0.267,0.148,0.091,northwest,7.5,No
2019/10/05,12:10,0.193,0.166,0.286,0.271,0.268,0.147,0.091,west-northwest,5.3,No
2019/10/05,12:20,0.192,0.168,0.286,0.272,0.268,0.147,0.089,west-northwest,4.3,No
2019/10/05,12:30,0.193,0.168,0.288,0.271,0.266,0.147,0.090,south-southwest,1.6,No
2019/10/05,12:40,0.192,0.168,0.287,0.273,0.268,0.147,0.089,south-southeast,4.5,No
2019/10/05,12:50,0.192,0.168,0.287,0.272,0.268,0.148,0.090,south-southeast,5.1,No
2019/10/05,13:00,0.194,0.167,0.288,0.271,0.266,0.148,0.091,south-southeast,4.4,No
2019/10/05,13:10,0.193,0.166,0.288,0.269,0.267,0.147,0.089,south-southeast,5.7,No
2019/10/05,13:20,0.193,0.167,0.288,0.271,0.267,0.147,0.090,south-southeast,5.9,No
2019/10/05,13:30,0.192,0.167,0.288,0.270,0.268,0.146,0.090,south-southeast,4.2,No
2019/10/05,13:40,0.193,0.168,0.288,0.272,0.268,0.147,0.089,south-southeast,5.4,No
2019/10/05,13:50,0.192,0.166,0.286,0.271,0.267,0.147,0.090,south-southeast,4.4,No
2019/10/05,14:00,0.193,0.166,0.288,0.271,0.267,0.147,0.089,southeast,5.3,No
2019/10/05,14:10,0.192,0.166,0.287,0.269,0.268,0.147,0.090,southeast,3.2,No
2019/10/05,14:20,0.192,0.168,0.287,0.271,0.266,0.147,0.089,southeast,3.8,No
2019/10/05,14:30,0.192,0.166,0.287,0.270,0.266,0.148,0.089,east-southeast,2.6,No
2019/10/05,14:40,0.192,0.167,0.286,0.274,0.265,0.147,0.090,southeast,2.4,No
2019/10/05,14:50,0.190,0.167,0.287,0.274,0.265,0.147,0.091,southeast,2.9,No
2019/10/05,15:00,0.191,0.166,0.292,0.272,0.266,0.147,0.089,southeast,3.7,No
2019/10/05,15:10,0.193,0.168,0.289,0.271,0.270,0.146,0.090,southeast,2.8,No
2019/10/05,15:20,0.191,0.169,0.286,0.275,0.270,0.146,0.090,southeast,3.0,No
2019/10/05,15:30,0.191,0.167,0.288,0.274,0.266,0.147,0.090,south-southeast,2.3,No
2019/10/05,15:40,0.191,0.167,0.291,0.271,0.266,0.148,0.089,south-southeast,3.5,No
2019/10/05,15:50,0.192,0.169,0.288,0.273,0.268,0.147,0.089,south-southeast,3.7,No
2019/10/05,16:00,0.193,0.168,0.287,0.275,0.270,0.146,0.090,south-southeast,3.7,No
2019/10/05,16:10,0.192,0.167,0.290,0.272,0.267,0.148,0.089,south,3.2,No
2019/10/05,16:20,0.192,0.169,0.290,0.271,0.264,0.148,0.090,south,2.8,No
2019/10/05,16:30,0.194,0.167,0.287,0.275,0.269,0.147,0.091,south,2.1,No
2019/10/05,16:40,0.193,0.167,0.291,0.271,0.270,0.148,0.089,south,3.2,No
2019/10/05,16:50,0.193,0.169,0.290,0.272,0.265,0.148,0.090,south,4.0,No
2019/10/05,17:00,0.195,0.167,0.288,0.276,0.268,0.147,0.090,south,4.6,No
2019/10/05,17:10,0.193,0.169,0.291,0.272,0.271,0.147,0.089,south-southwest,3.7,No
2019/10/05,17:20,0.192,0.167,0.288,0.274,0.267,0.148,0.090,south-southwest,5.3,No
2019/10/05,17:30,0.194,0.169,0.288,0.274,0.271,0.147,0.090,south-southeast,2.8,No
2019/10/05,17:40,0.191,0.168,0.289,0.271,0.268,0.148,0.089,south,3.1,No
2019/10/05,17:50,0.193,0.167,0.287,0.274,0.265,0.148,0.090,south,4.6,No
2019/10/05,18:00,0.194,0.168,0.290,0.273,0.270,0.147,0.091,south,3.7,No
2019/10/05,18:10,0.192,0.167,0.290,0.272,0.268,0.149,0.090,south,3.9,No
2019/10/05,18:20,0.194,0.169,0.287,0.274,0.268,0.148,0.089,south,4.8,No
2019/10/05,18:30,0.193,0.168,0.290,0.272,0.271,0.148,0.089,south,4.5,No
2019/10/05,18:40,0.192,0.169,0.288,0.274,0.266,0.148,0.090,south,5.3,No
2019/10/05,18:50,0.195,0.168,0.289,0.273,0.268,0.147,0.090,south,5.8,No
2019/10/05,19:00,0.192,0.168,0.290,0.272,0.269,0.148,0.090,south,4.4,No
2019/10/05,19:10,0.193,0.169,0.288,0.275,0.267,0.149,0.090,south,4.0,No
2019/10/05,19:20,0.194,0.167,0.291,0.273,0.269,0.147,0.091,south-southwest,2.8,No
2019/10/05,19:30,0.192,0.169,0.291,0.272,0.270,0.149,0.092,south,2.0,No
2019/10/05,19:40,0.194,0.168,0.289,0.275,0.267,0.148,0.090,south-southeast,3.2,No
2019/10/05,19:50,0.193,0.169,0.290,0.272,0.270,0.148,0.091,south,2.8,No
2019/10/05,20:00,0.192,0.169,0.289,0.273,0.268,0.149,0.091,south,2.7,No
2019/10/05,20:10,0.194,0.168,0.290,0.274,0.266,0.148,0.091,south,2.7,No
2019/10/05,20:20,0.193,0.168,0.289,0.272,0.271,0.148,0.090,south,2.0,No
2019/10/05,20:30,0.193,0.167,0.288,0.276,0.267,0.148,0.091,south,2.4,No
2019/10/05,20:40,0.195,0.169,0.291,0.273,0.270,0.148,0.091,south,2.3,No
2019/10/05,20:50,0.193,0.167,0.290,0.274,0.268,0.148,0.091,south,2.7,No
2019/10/05,21:00,0.195,0.168,0.290,0.274,0.267,0.148,0.091,south,3.6,No
2019/10/05,21:10,0.194,0.169,0.289,0.272,0.270,0.147,0.090,south,4.1,No
2019/10/05,21:20,0.193,0.167,0.289,0.275,0.267,0.148,0.091,south,4.5,No
2019/10/05,21:30,0.194,0.169,0.291,0.273,0.269,0.147,0.091,south,4.3,No
2019/10/05,21:40,0.192,0.168,0.287,0.275,0.269,0.148,0.091,south,4.5,No
2019/10/05,21:50,0.194,0.169,0.291,0.273,0.266,0.147,0.091,south,3.9,No
2019/10/05,22:00,0.192,0.168,0.290,0.272,0.270,0.148,0.090,south-southwest,4.4,No
2019/10/05,22:10,0.192,0.168,0.290,0.273,0.268,0.148,0.091,south,4.0,No
2019/10/05,22:20,0.195,0.167,0.291,0.272,0.269,0.148,0.091,south-southeast,3.7,No
2019/10/05,22:30,0.191,0.169,0.287,0.274,0.270,0.148,0.091,southeast,2.7,No
2019/10/05,22:40,0.194,0.167,0.291,0.273,0.267,0.149,0.090,southeast,3.3,No
2019/10/05,22:50,0.194,0.167,0.288,0.272,0.269,0.147,0.090,east-southeast,2.0,No
2019/10/05,23:00,0.192,0.168,0.289,0.275,0.270,0.149,0.090,southeast,2.6,No
2019/10/05,23:10,0.194,0.168,0.290,0.271,0.266,0.148,0.090,south-southeast,1.7,No
2019/10/05,23:20,0.193,0.168,0.287,0.274,0.269,0.148,0.089,southeast,1.1,No
2019/10/05,23:30,0.192,0.167,0.291,0.274,0.267,0.149,0.090,south,1.1,No
2019/10/05,23:40,0.194,0.168,0.288,0.272,0.266,0.147,0.089,-,CALM,No
2019/10/05,23:50,0.192,0.168,0.290,0.274,0.269,0.147,0.090,-,CALM,No
